Location: Bathurst
(33.4193°S, 149.5775°E)
Time: 21:24:35
(UTC+10:00)

Vanguard 3 - Pass Details

Date: 01 July 2021
Orbit: 508 x 3261 km, 33.4° (Epoch: 25 July)

Event Time Altitude Azimuth Distance (km) Brightness Sun altitude
Rises 20:32:54 0° 254° (WSW) 6,755 12.6 -42.5°
Reaches altitude 10° 20:37:09 10° 257° (WSW) 5,944 12.1 -43.4°
Maximum altitude 20:56:19 61° 330° (NNW) 3,491 10.1 -47.4°
Enters shadow 20:59:44 56° 4° (N) 3,531 10.0 -48.1°
